TIANMU-1 03

Last updated on Mon Feb 10 2025 00:02:21 GMT+0000 (Coordinated Universal Time)

1 55973U 23039A 25040.62210601 .00015330 00000+0 51376-3 0 9991 2 55973 97.4852 197.5124 0005026 66.3433 293.8335 15.31001327105072
UTC large
Height (km)
Speed (km/s)
/
Latitude / Longitude
Inclination (degrees)
Orbital Period (minutes)
Azimuth
Elevation
Range (km)
Doppler Factor

Next 0 passes for location: London (51.5072 / 0.1276)

Sorry there are no passes over London.